[[{"header":{"parameterUnit":"m.s-1","parameterCategory":1,"la1":30.2991,"la2":30.254,"lo1":-89.0895,"lo2":-89.0444,"dy":0.0017,"dx":0.0017,"nx":28,"ny":28,"refTime":"2023-09-30T21:00:00:Z","depth":0,"parameterNumber":2,"parameterNumberName":"U-component_of_WINDS"},"data":[0,0,0,0,0,0,0,0,0,0,0,0,0,0,0,0,0,0,0,0,0,0,0,0,0,0,0,0,0,0,0,0,0,0,0,0,0,0,0,0,0,0,0,0,0,0,0,0,0,0,0,0,0,0,0,0,0,0,-4.3167,-4.317,0,-4.3448,-4.3452,-4.3455,-4.344,-4.3436,-4.3432,-4.3428,-4.372,-4.3731,-4.3743,0,0,0,0,0,0,0,0,0,0,0,0,0,-4.2623,-4.2633,-4.3167,-4.3171,-4.3174,-4.3448,-4.3452,-4.3456,-4.3441,-4.3436,-4.3431,-4.3426,-4.3716,-4.373,-4.3744,0,0,0,0,0,0,0,0,0,0,0,0,0,-4.2877,-4.2637,-4.3166,-4.32,-4.3205,-4.3447,-4.3452,-4.3457,-4.3442,-4.3436,-4.343,-4.3424,-4.3712,-4.3729,-4.3746,-4.3974,0,0,-4.3798,-4.3806,0,0,0,0,0,0,0,0,-4.2863,-4.2897,-4.3191,-4.3198,-4.3205,-4.3403,-4.3367,-4.363,-4.3443,-4.3352,-4.3428,-4.3421,-4.362,-4.3644,-4.371,-4.3987,-4.4,-4.38,-4.3811,-4.3818,-4.3823,0,0,0,0,0,0,0,-4.2845,-4.2885,-4.3278,-4.3196,-4.3204,-4.3203,-4.3232,-4.3417,-4.3517,-4.336,-4.3359,-4.3393,-4.3622,-4.3694,-4.3717,-4.4004,-4.38,-4.3815,-4.3826,-4.3832,-4.4487,-4.4494,0,0,0,0,0,0,-4.282,-4.2871,-4.327,-4.3287,-4.3015,-4.3217,-4.325,-4.3346,-4.3515,-4.3534,-4.3398,-4.3391,-4.3667,-4.3697,-4.3727,-4.4009,-4.3818,-4.3834,-4.3844,-4.448,-4.4489,-4.4496,0,0,0,0,0,0,-4.2808,-4.2856,-4.3258,-4.3079,-4.313,-4.3233,-4.334,-4.3354,-4.3426,-4.3543,-4.3561,-4.3452,-4.3664,-4.3703,-4.3913,-4.4018,-4.3842,-4.3858,-4.4472,-4.4483,-4.4493,-4.4571,0,0,0,0,0,0,-4.2793,-4.2851,-4.2938,-4.3081,-4.314,-4.3438,-4.3347,-4.3364,-4.3455,-4.3449,-4.3599,-4.3618,-4.3662,-4.3888,-4.3931,-4.4039,-4.3871,-4.4463,-4.4477,-4.4489,-4.4559,-4.4582,-4.4602,0,0,0,0,0,-4.2773,-4.2948,-4.2942,-4.299,-4.3249,-4.3444,-4.3478,-4.3523,-4.3463,-4.3552,-4.3628,-4.3613,-4.4,-4.3909,-4.3957,-4.4073,-4.4457,-4.4473,-4.4488,-4.4549,-4.4578,-4.4602,0,0,0,0,0,0,-4.2815,-4.2967,-4.2962,-4.3188,-4.3303,-4.3441,-4.3554,-4.3552,-4.3687,-4.3675,-4.3728,-4.3762,-4.3974,-4.4044,-4.3941,-4.4305,-4.4221,-4.4247,-4.4251,-4.4279,-4.43,-4.4279,-4.3885,0,0,0,0,0,-4.285,-4.2994,-4.312,-4.3308,-4.3366,-4.345,-4.3536,-4.3562,-4.3684,-4.3732,-4.3824,-4.3944,-4.4093,-4.4189,-4.4332,-4.4569,-4.4604,-4.4673,-4.4694,-4.4711,-4.4734,-4.4868,-4.4901,-4.4548,-4.4548,-4.4548,0,0,-4.2925,-4.3026,-4.3114,-4.3319,-4.3411,-4.3561,-4.3491,-4.3652,-4.3764,-4.3757,-4.3962,-4.4033,-4.4171,-4.4397,-4.45,-4.4462,-4.4839,-4.4732,-4.4744,-4.4758,-4.4888,-4.4921,-4.4951,-4.4559,-4.4557,-4.4555,0,0,-4.3138,-4.3228,-4.3395,-4.349,-4.363,-4.3685,-4.3726,-4.3865,-4.3912,-4.4118,-4.4117,-4.4253,-4.4507,-4.4606,-4.469,-4.4945,-4.4937,-4.499,-4.5104,-4.5234,-4.5262,-4.5287,-4.5381,-4.5413,-4.5012,-4.5012,-4.5012,0,-4.3213,-4.3438,-4.3482,-4.3645,-4.3737,-4.3737,-4.3909,-4.3999,-4.4179,-4.4243,-4.4197,-4.4519,-4.4611,-4.4862,-4.4924,-4.4991,-4.5041,-4.4973,-4.5254,-4.528,-4.5304,-4.5394,-4.5428,-4.5018,-4.5017,-4.5017,-4.5016,0,-4.3525,-4.3681,-4.38,-4.3974,-4.4079,-4.4246,-4.4318,-4.4419,-4.4437,-4.4498,-4.471,-4.4822,-4.4989,-4.505,-4.5068,-4.5305,-4.5277,-4.5242,-4.5159,-4.5342,-4.5428,-4.5462,-4.5026,-4.5024,-4.5022,-4.5021,0,0,-4.3771,-4.3969,-4.4012,-4.4093,-4.4249,-4.4372,-4.454,-4.4703,-4.4791,-4.4916,-4.5061,-4.5277,-4.5247,-4.5342,-4.5372,-4.5486,-4.5685,-4.5438,-4.5442,-4.5482,-4.5957,-4.5983,-4.6022,-4.5681,-4.5688,-4.5693,-4.5946,0,-4.4002,-4.4298,-4.4345,-4.4607,-4.4754,-4.4758,-4.4905,-4.5018,-4.5081,-4.5216,-4.5286,-4.544,-4.5387,-4.5445,-4.5558,-4.5637,-4.5782,-4.5619,-4.5819,-4.5825,-4.5785,-4.6066,-4.6094,-4.6327,-4.598,-4.5985,-4.5989,0,-4.431,-4.4444,-4.472,-4.486,-4.4923,-4.5054,-4.521,-4.5338,-4.5468,-4.5506,-4.5614,-4.5632,-4.5809,-4.5718,-4.5966,-4.5855,-4.594,-4.5991,-4.6001,-4.6023,-4.5919,-4.6098,-4.6403,-4.6438,-4.6042,-4.6038,-4.6034,0,-4.4464,-4.4714,-4.4912,-4.4981,-4.5148,-4.5241,-4.5315,-4.5439,-4.5536,-4.5672,-4.5736,-4.5892,-4.5977,-4.6099,-4.6159,-4.6086,-4.6404,-4.6317,-4.6443,-4.6442,-4.651,-4.6505,-4.6835,-4.6562,-4.6561,-4.6561,-4.656,0,-4.4718,-4.4888,-4.4985,-4.5107,-4.5298,-4.5352,-4.554,-4.5613,-4.5724,-4.5862,-4.5876,-4.6006,-4.6076,-4.6218,-4.6267,-4.6466,-4.6504,-4.6542,-4.6553,-4.6542,-4.6538,-4.6599,-4.6585,-4.657,-4.6568,-4.6566,-4.6565,0,-4.4923,-4.4994,-4.5211,-4.5353,-4.5392,-4.5528,-4.565,-4.577,-4.5833,-4.6009,-4.6053,-4.6153,-4.632,-4.6392,-4.6598,-4.6631,-4.6861,-4.6859,-4.6817,-4.6821,-4.6943,-4.6932,-4.7326,-4.7381,-4.7069,-4.7072,-4.7075,0,-4.508,-4.5211,-4.5367,-4.5461,-4.5538,-4.5688,-4.5787,-4.5845,-4.5948,-4.6108,-4.6211,-4.6378,-4.6516,-4.6784,-4.6877,-4.7036,-4.7039,-4.7166,-4.7063,-4.7049,-4.7044,-4.7036,-4.7051,-4.7185,-4.7188,-4.7191,-4.7193,0,-4.5354,-4.5384,-4.5524,-4.568,-4.5797,-4.5922,-4.6044,-4.6121,-4.6199,-4.6315,-4.6486,-4.6593,-4.6804,-4.6972,-4.7137,-4.7216,-4.722,-4.7225,-4.7263,-4.7253,-4.7224,-4.7244,-4.687,-4.7216,-4.7213,-4.7212,-4.721,-4.7209,-4.5542,-4.566,-4.5788,-4.5946,-4.6045,-4.616,-4.6281,-4.6359,-4.6503,-4.6679,-4.6706,-4.689,-4.7021,-4.7243,-4.7329,-4.7476,-4.7444,-4.7498,-4.7513,-4.7526,-4.7535,-4.72,-4.7506,-4.7505,-4.7505,-4.7504,-4.7504,0,-4.5818,-4.5901,-4.6046,-4.6217,-4.6343,-4.6333,-4.6469,-4.6575,-4.6737,-4.6858,-4.6993,-4.7193,-4.7356,-4.7462,-4.7628,-4.7726,-4.7732,-4.7768,-4.7762,-4.7781,-4.7552,-4.7503,-4.776,-4.776,-4.776,-4.776,-4.776,-4.776,-4.5976,-4.6176,-4.6221,-4.6471,-4.6555,-4.6734,-4.6813,-4.6921,-4.7018,-4.7239,-4.7375,-4.7443,-4.756,-4.7735,-4.7886,-4.7913,-4.7975,-4.8013,-4.8039,-4.7823,-4.7797,-4.7771,-4.7726,-4.8025,-4.8026,-4.8256,-4.8258,-4.826]},{"header":{"parameterUnit":"m.s-1","parameterCategory":1,"la1":30.2991,"la2":30.254,"lo1":-89.0895,"lo2":-89.0444,"dy":0.0017,"dx":0.0017,"nx":28,"ny":28,"refTime":"2023-09-30T21:00:00:Z","depth":0,"parameterNumber":3,"parameterNumberName":"V-component_of_WINDS"},"data":[0,0,0,0,0,0,0,0,0,0,0,0,0,0,0,0,0,0,0,0,0,0,0,0,0,0,0,0,0,0,0,0,0,0,0,0,0,0,0,0,0,0,0,0,0,0,0,0,0,0,0,0,0,0,0,0,0,0,-0.9812,-0.981,0,-0.9685,-0.9683,-0.9682,-0.9616,-0.9616,-0.9616,-0.9616,-0.9487,-0.9483,-0.948,0,0,0,0,0,0,0,0,0,0,0,0,0,-0.9995,-0.9992,-0.9812,-0.981,-0.9809,-0.9685,-0.9683,-0.9682,-0.9616,-0.9616,-0.9616,-0.9616,-0.9488,-0.9484,-0.948,0,0,0,0,0,0,0,0,0,0,0,0,0,-0.9897,-0.9991,-0.9812,-0.9761,-0.9755,-0.9685,-0.9683,-0.9681,-0.9616,-0.9616,-0.9616,-0.9616,-0.9489,-0.9484,-0.9479,-0.945,0,0,-0.9464,-0.9461,0,0,0,0,0,0,0,0,-0.9902,-0.989,-0.977,-0.9765,-0.9758,-0.9666,-0.97,-0.9604,-0.9617,-0.9669,-0.9616,-0.9616,-0.9546,-0.9537,-0.9513,-0.9444,-0.9439,-0.9463,-0.946,-0.9458,-0.9456,0,0,0,0,0,0,0,-0.9909,-0.9895,-0.9762,-0.9769,-0.9761,-0.9744,-0.973,-0.9682,-0.961,-0.9665,-0.966,-0.9645,-0.9543,-0.9518,-0.951,-0.9437,-0.9463,-0.9459,-0.9456,-0.9454,-0.9334,-0.9334,0,0,0,0,0,0,-0.9925,-0.9901,-0.9766,-0.9758,-0.9831,-0.9741,-0.9725,-0.9696,-0.961,-0.9597,-0.9646,-0.9643,-0.9527,-0.9516,-0.9505,-0.9463,-0.9458,-0.9453,-0.945,-0.9334,-0.9334,-0.9334,0,0,0,0,0,0,-0.9929,-0.9913,-0.9771,-0.9828,-0.9809,-0.9738,-0.9706,-0.9693,-0.9668,-0.9596,-0.9583,-0.9634,-0.9526,-0.9512,-0.9463,-0.9458,-0.9451,-0.9446,-0.9334,-0.9334,-0.9334,-0.9382,0,0,0,0,0,0,-0.9934,-0.9915,-0.9904,-0.9828,-0.9806,-0.9732,-0.9705,-0.9691,-0.966,-0.9655,-0.9581,-0.9569,-0.9525,-0.9471,-0.9458,-0.9451,-0.9442,-0.9335,-0.9334,-0.9334,-0.938,-0.9383,-0.9386,0,0,0,0,0,-0.9941,-0.9923,-0.9904,-0.9888,-0.9791,-0.9732,-0.9719,-0.9669,-0.966,-0.9647,-0.96,-0.9571,-0.9461,-0.9467,-0.9452,-0.9443,-0.9335,-0.9334,-0.9334,-0.9379,-0.9383,-0.9386,0,0,0,0,0,0,-1.0001,-0.9912,-0.989,-0.9847,-0.9798,-0.9721,-0.9705,-0.9675,-0.9627,-0.9625,-0.9565,-0.9548,-0.9505,-0.9469,-0.9478,-0.9409,-0.9395,-0.9391,-0.9434,-0.9437,-0.9439,-0.9449,-0.9438,0,0,0,0,0,-1.0009,-0.9969,-0.9894,-0.9863,-0.984,-0.9776,-0.9749,-0.9715,-0.9661,-0.964,-0.9589,-0.9538,-0.9491,-0.9462,-0.9415,-0.9375,-0.9357,-0.9361,-0.9363,-0.9366,-0.9364,-0.9337,-0.9337,-0.9333,-0.9333,-0.9333,0,0,-1.0026,-0.9972,-0.9951,-0.9874,-0.9832,-0.9791,-0.9759,-0.9718,-0.9687,-0.9633,-0.9584,-0.9545,-0.9484,-0.9438,-0.9416,-0.9407,-0.9361,-0.9365,-0.9368,-0.9364,-0.9337,-0.9337,-0.9338,-0.9333,-0.9333,-0.9333,0,0,-1.0035,-0.9991,-0.996,-0.9917,-0.9853,-0.981,-0.9803,-0.973,-0.9702,-0.9651,-0.961,-0.9571,-0.9493,-0.945,-0.9418,-0.9408,-0.9379,-0.9394,-0.9408,-0.9383,-0.9383,-0.9383,-0.9378,-0.9377,-0.9392,-0.9393,-0.9393,0,-1.0064,-1.0001,-0.9947,-0.9908,-0.9874,-0.9823,-0.9789,-0.9751,-0.9675,-0.9652,-0.9643,-0.9542,-0.9497,-0.944,-0.9437,-0.9413,-0.9402,-0.9403,-0.9388,-0.9387,-0.9386,-0.9381,-0.9379,-0.9395,-0.9395,-0.9394,-0.9394,0,-1.0039,-0.9996,-0.9978,-0.9905,-0.9869,-0.9833,-0.9773,-0.9743,-0.9711,-0.9669,-0.9617,-0.9561,-0.9501,-0.9485,-0.9454,-0.9422,-0.9418,-0.9399,-0.9384,-0.939,-0.9383,-0.9381,-0.9398,-0.9397,-0.9397,-0.9396,0,0,-1.0084,-0.9979,-0.9974,-0.9939,-0.9862,-0.9828,-0.9788,-0.9729,-0.9704,-0.9652,-0.9617,-0.955,-0.9531,-0.9495,-0.9458,-0.9436,-0.9429,-0.9419,-0.9417,-0.9422,-0.9389,-0.9403,-0.9402,-0.9409,-0.9408,-0.9408,-0.9394,0,-1.0081,-1.0009,-0.9958,-0.9904,-0.9863,-0.9812,-0.9777,-0.9726,-0.9685,-0.9643,-0.9598,-0.9551,-0.9531,-0.9508,-0.9484,-0.9435,-0.9422,-0.9436,-0.9374,-0.9373,-0.9391,-0.9399,-0.9414,-0.9404,-0.9391,-0.939,-0.939,0,-1.007,-1.0018,-0.9961,-0.9887,-0.9867,-0.9837,-0.9777,-0.9738,-0.9678,-0.965,-0.9608,-0.957,-0.9524,-0.9513,-0.9449,-0.9459,-0.9431,-0.9403,-0.9401,-0.9393,-0.9382,-0.939,-0.9399,-0.9398,-0.9386,-0.9386,-0.9387,0,-1.0107,-1.0023,-0.9977,-0.9949,-0.9862,-0.9841,-0.9804,-0.9744,-0.9711,-0.9658,-0.9635,-0.9579,-0.9547,-0.9504,-0.945,-0.9447,-0.9391,-0.9375,-0.9365,-0.9367,-0.9356,-0.9357,-0.936,-0.9339,-0.9339,-0.9339,-0.9339,0,-1.0109,-1.0076,-0.9992,-0.9964,-0.9924,-0.9865,-0.9827,-0.9785,-0.9732,-0.9694,-0.9646,-0.9611,-0.9543,-0.95,-0.9458,-0.941,-0.9396,-0.9371,-0.9361,-0.9375,-0.9378,-0.9356,-0.9355,-0.9339,-0.9339,-0.9339,-0.9339,0,-1.0144,-1.0088,-1.0034,-0.9955,-0.9934,-0.9908,-0.9839,-0.9809,-0.9765,-0.9717,-0.9702,-0.9633,-0.9579,-0.9521,-0.9448,-0.9419,-0.9373,-0.9358,-0.9393,-0.9387,-0.938,-0.9381,-0.9368,-0.9362,-0.9346,-0.9346,-0.9347,0,-1.015,-1.0122,-1.004,-1.001,-0.9974,-0.9928,-0.9893,-0.9833,-0.9798,-0.9726,-0.9705,-0.9647,-0.9597,-0.9513,-0.9455,-0.9398,-0.9381,-0.938,-0.9372,-0.9387,-0.938,-0.9382,-0.9378,-0.9383,-0.9384,-0.9384,-0.9384,0,-1.0165,-1.0137,-1.0089,-1.003,-0.9989,-0.994,-0.9889,-0.9868,-0.9797,-0.9761,-0.9704,-0.9666,-0.9589,-0.9532,-0.9467,-0.9428,-0.9394,-0.9387,-0.9381,-0.9396,-0.9417,-0.9404,-0.94,-0.9388,-0.9387,-0.9387,-0.9387,-0.9387,-1.0184,-1.0156,-1.0093,-1.004,-0.9995,-0.9948,-0.9915,-0.9865,-0.9817,-0.975,-0.9718,-0.9661,-0.9599,-0.9508,-0.947,-0.9424,-0.9414,-0.9406,-0.9404,-0.9403,-0.9406,-0.9425,-0.9412,-0.9412,-0.9411,-0.9411,-0.9411,0,-1.0196,-1.0152,-1.0103,-1.0033,-0.999,-0.9961,-0.9902,-0.9869,-0.9819,-0.9764,-0.9716,-0.965,-0.9593,-0.953,-0.9469,-0.9444,-0.9427,-0.943,-0.9431,-0.9422,-0.9419,-0.9429,-0.9445,-0.9445,-0.9445,-0.9445,-0.9445,-0.9445,-1.0197,-1.0148,-1.0112,-1.0039,-0.9995,-0.9939,-0.9908,-0.9863,-0.9819,-0.9747,-0.9699,-0.9658,-0.9599,-0.9533,-0.9479,-0.9462,-0.9441,-0.9449,-0.9428,-0.9426,-0.9423,-0.942,-0.943,-0.9445,-0.9445,-0.9434,-0.9434,-0.9434]}]]